Theta_e
312 312 312 312 312 311 311 311 311 311 310 310 310 309 309 308 306 305 304 302 302 301 301 300 301 301 301 302 300 300 300 301 301 301 302 301 301 300 300 299 298 298 299 298 299 298 298 297 297 297 297 296 296 296 296 296 297 298 298 298 297 297 297 295 293 293 296 299 299 299 301 301 300 301 299 300 300 301 303 302 302 302 302 302 303
312 311 311 310 310 310 310 310 310 310 309 309 309 308 306 304 303 302 301 301 301 300 300 300 300 300 299 299 299 299 300 300 300 301 300 300 299 300 299 298 297 297 297 297 297 298 297 296 296 296 296 295 295 295 295 296 296 296 296 297 296 296 297 296 294 294 293 297 297 299 300 301 298 300 298 298 298 300 300 300 301 301 302 302 302
311 310 310 309 309 310 310 309 309 309 308 308 307 306 305 303 303 301 300 300 301 300 299 299 299 299 298 298 298 298 298 299 299 300 299 299 298 298 298 297 297 297 296 296 297 297 296 296 295 295 296 294 294 294 295 295 295 295 295 295 295 295 297 297 295 293 293 294 297 296 296 297 296 297 298 299 299 299 298 298 299 301 302 302 302
310 309 309 309 309 309 309 309 308 308 306 306 305 304 303 302 302 300 300 300 299 299 299 298 298 297 297 296 296 296 297 298 298 299 299 298 298 297 297 297 297 297 297 296 296 296 295 295 295 294 294 293 293 293 293 294 294 295 294 295 295 295 296 296 297 295 295 293 295 295 296 296 297 298 298 299 298 298 298 298 299 300 300 301 301
309 309 309 308 308 308 308 308 307 307 306 305 303 303 303 302 302 300 299 299 299 298 299 298 297 297 296 295 295 295 295 296 297 298 298 298 298 297 297 296 296 296 296 297 300 296 296 295 295 294 293 292 292 292 293 293 294 295 294 295 295 296 296 296 295 295 294 293 294 296 296 296 297 297 298 296 297 297 298 297 298 298 299 300 301
308 308 308 308 307 307 307 306 306 305 305 304 303 302 302 301 300 300 299 298 298 298 297 297 298 296 296 295 295 294 294 295 295 296 297 298 297 297 297 297 296 296 296 296 296 296 296 295 295 294 293 292 292 292 293 292 294 294 294 294 295 295 294 294 295 295 294 294 294 294 296 295 296 296 297 297 296 295 295 296 297 298 298 298 299
308 308 307 307 306 306 306 305 305 305 304 303 303 302 301 301 300 299 299 298 297 297 297 296 297 296 295 295 294 294 294 294 294 294 295 296 296 296 296 295 296 296 295 296 296 295 295 295 295 294 293 292 292 292 292 292 294 293 295 294 295 294 293 293 294 294 294 293 294 294 294 296 296 295 297 298 297 297 294 294 294 296 297 297 297
307 307 306 306 305 305 305 305 304 304 303 303 302 302 301 300 300 300 299 297 297 296 296 296 296 296 295 295 295 295 294 293 293 293 293 294 296 296 296 296 295 295 295 295 295 295 295 295 295 295 295 294 293 292 292 292 293 293 293 294 294 294 293 294 293 293 293 293 293 293 294 294 295 297 298 297 295 295 296 294 292 293 294 296 297
306 306 306 305 304 304 304 304 304 304 303 302 302 301 300 300 299 299 298 298 298 296 296 295 295 294 294 294 293 294 294 294 294 292 292 293 294 295 295 295 295 294 294 294 294 294 294 294 295 296 300 302 300 297 296 296 294 292 292 293 294 294 293 293 293 293 293 292 292 293 293 293 294 295 294 294 293 293 295 295 293 294 294 294 296
306 306 305 304 304 304 303 303 302 302 302 301 301 300 299 299 298 297 296 296 296 296 295 295 294 293 293 293 293 293 293 294 296 295 295 295 293 296 296 295 294 294 294 293 293 294 294 293 298 301 301 301 300 297 294 295 296 295 293 292 293 293 293 293 292 292 292 292 292 292 292 292 293 294 294 295 296 296 294 294 292 293 294 294 295
306 305 304 303 303 303 302 302 302 301 301 301 300 300 299 298 297 296 295 295 295 295 293 292 292 292 292 292 292 292 292 294 294 292 292 296 295 295 295 294 293 293 293 292 292 293 293 293 292 297 298 298 298 296 294 294 293 293 294 296 297 294 293 292 292 292 292 292 292 292 292 292 293 295 295 295 296 295 294 294 293 293 292 291 290
305 304 303 303 302 302 302 301 301 301 301 300 300 300 299 298 296 295 295 294 294 293 292 292 292 291 291 291 291 292 292 295 292 293 292 293 298 297 295 295 294 293 292 292 293 292 291 292 292 294 293 297 296 292 293 294 293 293 293 294 294 294 294 293 292 291 292 291 291 292 292 292 293 294 295 295 294 294 294 293 293 292 292 291 292
304 304 303 302 301 301 301 301 301 301 300 300 301 300 299 298 296 295 294 295 293 292 292 291 291 291 291 291 291 291 291 293 292 293 293 293 295 297 295 294 294 293 292 292 292 290 290 292 292 293 292 298 298 291 290 290 294 294 295 295 295 296 292 292 293 294 293 292 292 292 293 293 293 294 296 296 296 294 293 292 293 293 293 292 292
303 303 302 301 301 301 301 301 300 300 300 300 300 300 299 297 297 296 296 295 293 293 292 291 291 292 292 291 291 292 292 293 293 294 294 294 295 296 294 294 294 293 293 292 292 291 290 290 291 291 291 291 292 291 290 290 290 291 291 291 291 294 293 293 293 293 294 294 292 291 293 295 294 295 297 297 295 294 293 292 293 293 292 292 293
303 302 301 301 301 300 300 300 300 300 300 300 299 299 298 298 297 296 294 293 292 291 291 291 291 292 291 292 292 292 292 292 292 293 294 294 294 295 294 295 294 293 292 292 291 292 290 291 290 290 291 291 294 292 290 290 289 290 290 290 291 291 291 292 292 293 293 293 292 292 293 294 295 296 297 298 297 296 295 294 294 294 294 294 294
302 301 300 300 300 300 300 300 300 299 299 299 298 298 298 297 296 296 295 293 293 292 291 291 291 291 292 292 291 290 290 291 292 292 293 293 294 296 294 293 292 293 292 292 291 290 291 292 292 291 291 291 294 291 292 292 289 289 289 289 290 290 291 295 294 294 294 293 292 292 292 293 294 294 296 297 297 297 297 296 294 293 292 291 290
301 301 300 300 300 300 300 300 299 299 298 298 297 297 297 296 296 296 295 294 293 291 291 291 292 292 291 290 289 289 289 291 291 292 292 292 293 292 292 293 291 290 290 291 292 292 292 294 293 291 291 291 293 290 290 293 289 289 288 288 289 289 290 292 293 293 293 293 292 292 292 292 293 293 294 294 295 297 296 292 291 291 290 288 289
301 301 300 300 300 300 300 300 299 299 298 297 297 296 296 296 296 297 295 294 293 293 292 291 290 291 290 289 290 290 288 291 291 292 292 292 293 291 290 291 289 289 290 290 290 290 292 299 300 292 291 291 291 290 290 292 288 288 287 287 288 288 289 290 291 293 293 293 292 292 292 292 293 294 295 295 295 297 295 290 291 291 289 289 288
302 300 300 300 300 300 300 300 299 298 297 296 297 296 296 296 296 295 294 294 293 293 294 291 290 289 290 292 298 291 289 292 292 291 291 292 293 290 290 290 290 288 289 291 290 290 290 294 297 295 293 292 290 290 290 291 288 287 286 286 287 287 288 288 289 290 290 290 290 291 292 293 295 295 296 295 295 298 296 294 293 291 289 289 289
301 301 300 300 300 300 300 299 298 297 297 296 297 296 296 295 294 294 293 293 293 292 293 292 291 290 290 290 292 289 290 289 290 291 291 292 293 292 290 289 289 288 288 291 290 289 289 289 293 292 291 290 290 290 290 290 289 287 287 286 286 286 288 289 291 291 289 289 289 290 290 291 292 293 294 295 296 298 296 295 294 292 290 290 289
301 300 300 299 300 299 299 299 298 298 297 297 297 297 295 294 293 293 293 292 292 291 291 291 291 289 289 289 289 289 291 289 290 291 291 291 291 291 288 288 287 288 287 288 286 287 288 288 288 292 290 290 290 290 290 290 291 290 287 286 286 289 290 288 290 292 288 289 289 289 290 290 291 291 293 294 295 296 297 295 295 294 293 290 288
299 299 299 299 299 299 298 298 299 298 298 297 296 295 295 294 294 293 292 292 292 291 290 290 290 289 288 289 289 289 293 294 289 291 291 291 291 291 290 288 289 288 288 286 287 287 287 287 288 291 290 290 290 290 290 290 290 290 288 288 289 289 289 290 288 288 288 288 288 288 288 288 289 290 291 292 293 295 296 296 295 295 294 294 292
298 298 298 298 298 298 298 298 298 299 298 297 296 295 295 295 294 294 293 292 291 290 290 290 290 289 288 288 287 288 288 291 292 290 291 290 290 290 290 289 291 291 287 287 286 287 286 287 290 293 290 290 290 290 290 290 290 288 289 288 289 289 289 287 288 287 286 287 287 286 287 287 288 288 290 290 292 293 295 296 296 295 295 295 295
298 298 298 298 298 298 298 298 298 297 297 296 296 295 295 295 295 294 294 293 292 291 289 291 290 288 288 287 288 288 288 287 291 291 289 290 290 290 290 290 290 290 290 288 287 286 287 287 290 290 290 290 289 290 290 290 288 289 289 288 289 289 287 287 286 286 286 286 285 285 286 287 287 288 289 290 291 292 293 295 295 295 295 295 295
297 297 297 297 297 298 297 297 297 296 296 296 296 296 295 295 295 294 294 293 292 292 291 291 290 289 288 289 287 288 288 286 286 290 291 290 289 289 289 290 289 290 288 288 288 287 289 289 289 290 290 290 289 290 290 290 289 288 289 288 290 285 286 285 285 285 284 284 285 285 285 286 286 288 289 290 291 292 293 294 295 295 295 295 294
297 297 297 297 297 298 297 296 296 296 296 296 297 296 296 296 295 294 294 293 293 292 292 292 291 290 289 287 287 286 286 284 284 285 290 291 290 290 289 289 291 290 290 288 289 289 289 290 290 290 290 290 289 287 287 288 288 289 289 289 284 284 284 284 284 284 284 284 285 284 284 285 286 287 289 290 290 290 291 291 292 293 293 293 292
297 296 296 296 296 297 296 296 295 295 295 295 296 297 296 295 295 294 293 293 292 291 292 292 291 290 289 287 286 286 284 283 284 283 282 282 284 286 285 287 290 290 289 288 289 288 290 291 289 289 289 289 288 289 288 289 287 286 285 284 284 284 285 284 284 284 284 283 284 284 285 285 286 287 288 288 288 289 290 291 291 291 292 292 291
296 296 296 296 296 296 296 293 295 294 294 295 294 293 293 294 294 294 293 292 290 290 291 291 290 290 288 286 285 284 283 284 283 283 284 284 284 283 284 285 284 283 285 286 286 289 289 289 288 287 286 286 286 285 284 285 285 284 284 283 284 285 287 289 288 284 284 283 283 284 285 285 285 285 286 287 287 288 289 290 290 290 291 291 290
296 295 295 296 295 296 296 295 295 293 291 291 289 288 290 291 291 287 286 286 291 291 290 290 291 290 289 287 286 285 283 282 285 286 283 288 285 285 284 283 283 283 288 289 288 286 285 285 284 284 283 283 284 284 284 283 284 284 284 284 283 283 283 283 283 283 283 283 283 283 283 283 284 284 285 286 286 287 288 288 290 290 290 290 289
295 294 295 295 295 294 294 293 292 291 290 288 288 287 287 289 288 291 288 291 291 291 291 289 290 289 288 287 286 285 284 284 287 288 288 288 288 288 289 289 288 286 288 288 288 282 281 281 281 280 282 282 282 281 283 282 283 282 283 284 283 283 283 283 282 282 283 283 282 282 282 282 283 283 284 284 285 286 287 287 287 289 289 288 288
294 294 294 294 294 294 292 291 290 290 289 288 287 286 286 287 288 289 290 291 290 290 290 290 290 290 290 286 285 288 288 288 288 288 288 288 288 288 288 288 288 288 288 282 281 279 280 279 280 281 281 282 281 281 280 282 280 281 282 282 281 282 282 282 283 282 282 282 282 282 282 282 282 282 282 283 283 285 286 286 286 287 288 288 287
294 294 294 294 292 291 291 290 289 289 288 288 287 287 287 286 287 288 288 289 290 290 289 289 289 289 289 288 287 284 287 288 288 288 288 289 288 288 288 288 288 288 288 288 283 280 281 281 280 282 282 283 282 281 281 282 281 281 281 281 282 281 280 282 282 281 281 282 282 282 282 282 282 282 282 282 283 283 284 285 285 284 285 287 287
294 294 294 293 292 291 290 289 289 289 287 286 286 287 286 286 286 285 287 288 289 289 289 290 289 289 289 289 288 287 287 288 288 289 289 288 288 288 288 289 289 289 288 282 281 282 279 281 281 282 282 283 282 282 282 282 281 281 281 280 281 281 282 281 280 281 281 282 282 282 282 281 281 282 282 282 282 282 282 283 284 284 284 284 286
294 294 294 293 292 291 290 289 289 288 288 287 287 286 286 286 286 285 285 283 286 288 289 289 289 288 289 289 289 289 288 288 289 289 288 288 288 288 288 286 289 289 287 281 279 283 283 281 281 282 284 283 283 282 281 282 281 281 281 281 281 281 281 280 281 281 280 281 281 282 282 281 280 281 281 282 282 282 282 282 282 283 283 282 283
295 292 290 291 293 291 290 289 288 288 287 287 286 286 285 285 285 285 285 284 284 283 283 285 287 288 286 288 288 288 288 288 289 288 288 288 288 289 287 283 283 281 284 284 284 283 283 283 283 283 282 284 285 283 284 283 282 282 282 281 281 282 281 281 282 281 281 281 282 282 281 281 281 280 279 280 281 281 281 282 281 282 282 282 282
295 293 293 293 292 291 290 289 288 288 287 287 287 286 285 285 285 284 284 284 284 283 283 283 282 287 289 288 287 288 288 288 288 288 287 287 287 289 284 281 282 282 282 283 282 283 283 283 282 282 282 283 283 283 283 282 282 282 281 281 280 281 281 281 281 281 280 281 281 280 282 282 281 280 281 282 281 281 281 281 281 282 282 282 282
295 294 294 293 293 291 290 289 288 288 286 286 286 286 286 285 285 284 284 284 283 283 282 282 285 286 287 286 290 289 288 288 288 288 288 288 288 286 283 283 283 282 283 283 283 283 283 284 282 282 283 283 283 284 283 283 282 281 283 281 281 280 282 280 280 280 280 281 281 281 279 281 280 280 278 279 281 281 281 281 281 282 282 282 283
295 294 293 293 292 291 290 290 288 286 287 287 287 287 286 286 286 286 285 284 284 284 284 284 287 284 285 286 292 288 284 289 289 289 289 288 284 282 284 282 282 282 283 283 284 284 283 283 283 283 284 282 283 282 281 282 281 281 281 282 279 279 285 280 279 279 278 278 280 280 280 280 280 279 279 279 279 279 281 280 280 281 282 282 282
294 290 289 289 289 292 291 290 288 288 287 287 287 287 286 286 287 286 286 285 285 284 285 286 285 285 286 285 285 288 287 285 284 284 285 284 283 282 282 283 282 282 282 284 285 283 284 283 283 284 283 284 282 282 283 283 282 281 281 280 280 277 278 277 278 278 278 279 279 279 279 279 279 279 278 278 279 278 279 280 280 279 279 280 280
292 291 289 289 290 291 290 289 289 288 287 288 288 288 287 286 287 287 286 285 285 286 286 286 286 286 287 284 283 284 284 284 284 284 284 284 284 283 283 284 284 284 285 284 284 285 284 283 284 284 284 285 283 283 282 283 284 282 280 279 280 280 281 280 278 277 279 278 277 279 279 279 279 279 278 279 279 278 279 279 279 279 279 279 280
292 292 289 289 290 291 290 289 289 289 288 288 288 289 288 288 288 287 287 287 287 287 287 287 288 289 287 287 288 287 287 286 285 284 284 284 284 283 283 284 284 285 284 284 285 285 285 285 284 284 284 284 284 284 283 283 282 280 280 281 280 280 280 280 278 277 278 277 278 278 279 278 279 278 280 280 283 281 279 279 278 279 279 278 279
293 291 291 291 290 291 290 290 290 290 290 290 290 290 289 288 289 288 288 288 287 287 287 288 288 289 288 289 288 288 288 286 284 284 285 284 284 284 284 283 284 285 286 285 285 286 286 286 287 284 284 284 283 283 283 282 282 282 281 281 281 282 281 281 281 279 279 279 278 278 278 279 280 279 279 284 279 279 280 280 279 279 279 279 279
293 292 292 291 291 291 291 291 291 292 291 291 291 289 290 290 289 289 288 288 287 287 287 287 288 288 287 287 288 287 288 286 285 285 284 283 283 283 284 284 285 285 285 286 285 286 287 286 287 286 286 287 286 286 285 286 286 284 284 283 283 283 283 282 281 280 279 279 279 280 279 279 279 278 277 278 277 278 279 280 280 280 279 278 278
293 291 291 291 291 291 291 292 291 292 291 290 290 290 290 291 290 289 289 288 287 286 287 287 287 286 287 285 285 286 287 287 285 285 285 283 283 283 283 283 283 283 284 284 285 286 286 287 287 287 287 286 286 286 287 287 286 285 285 284 283 283 283 282 282 282 281 281 281 281 280 279 279 278 279 280 277 278 279 279 280 280 280 279 278
294 293 292 292 292 292 292 292 292 291 289 288 288 289 288 290 290 289 288 288 286 287 286 286 285 285 285 284 286 287 287 288 287 286 285 284 284 284 285 284 284 284 284 285 286 287 286 287 287 287 287 287 287 287 287 288 287 287 286 286 286 286 286 286 286 285 283 282 282 281 281 280 280 279 279 278 278 277 278 278 278 281 281 280 280
294 293 293 293 292 292 292 292 290 292 291 290 289 288 288 289 289 288 288 287 287 286 286 286 285 285 285 285 285 285 287 287 287 286 286 285 285 286 286 285 285 285 286 286 286 286 286 287 287 287 288 288 288 287 287 288 288 287 287 286 287 288 288 287 286 284 283 282 283 282 282 281 281 281 282 280 279 278 278 278 277 278 278 278 279
295 294 293 293 293 292 292 292 290 290 292 291 290 290 288 289 290 288 287 288 287 286 286 285 286 284 284 284 285 285 286 286 286 285 286 286 286 286 287 287 287 287 287 287 287 287 287 287 287 287 288 288 288 288 288 288 287 287 286 286 286 287 287 287 287 287 286 285 284 283 283 282 283 282 282 281 280 280 280 280 280 280 279 279 280
295 294 293 293 293 293 292 291 290 288 290 290 289 289 288 288 289 288 287 286 286 285 285 285 285 285 286 285 285 286 285 286 286 286 286 286 287 287 287 287 287 288 288 288 287 286 286 286 287 287 287 288 287 288 288 288 287 287 286 286 287 287 287 285 286 287 286 285 284 284 284 284 284 283 282 281 282 281 281 282 281 280 280 280 280
293 293 292 293 292 293 291 291 290 289 290 290 288 288 288 288 288 288 287 287 287 286 286 286 286 285 285 286 286 286 286 286 286 286 286 287 287 288 288 288 287 286 285 286 286 286 286 286 286 286 287 287 287 287 288 287 287 287 287 286 287 286 285 284 285 287 285 286 285 285 284 284 284 284 284 283 283 282 282 282 281 281 281 280 280
293 292 292 292 292 292 290 290 289 291 290 289 289 289 288 288 287 287 288 287 287 286 286 286 286 287 286 287 286 287 286 286 287 287 287 287 287 288 287 286 286 286 287 287 288 287 287 286 286 286 286 287 287 287 287 287 287 287 287 288 286 286 286 285 284 284 285 286 286 286 285 285 285 284 284 284 284 283 283 283 283 283 281 282 282
291 290 291 291 292 291 290 290 288 289 289 289 288 288 288 288 288 288 287 287 287 288 288 287 287 286 286 286 286 286 286 286 287 287 287 287 287 286 286 286 287 287 287 286 286 286 286 285 285 286 286 286 286 286 286 287 287 287 286 286 286 286 286 285 286 285 284 283 286 286 285 285 285 285 285 285 284 283 284 284 284 283 283 283 283
Wind_Speed
8 7 7 7 8 8 7 7 8 8 9 9 10 9 8 8 8 7 8 8 8 9 8 7 7 7 8 8 8 8 8 8 6 7 8 8 7 7 7 7 8 7 7 8 7 7 8 8 8 8 7 7 6 6 6 5 5 4 4 4 5 6 6 8 9 11 9 8 9 10 12 12 12 12 14 13 13 13 13 11 12 10 11 11 11
8 7 6 7 8 8 8 7 8 8 9 8 9 9 9 8 8 10 10 8 9 8 8 6 7 8 8 8 8 8 8 8 7 7 8 8 6 5 7 7 8 8 7 8 7 7 7 8 8 7 6 6 5 6 5 5 5 5 5 5 6 6 7 7 9 10 13 11 10 9 10 11 12 12 13 15 15 13 14 14 11 10 10 10 11
6 7 8 8 8 8 8 8 9 9 9 8 9 9 9 9 9 10 9 8 8 8 7 7 7 8 8 8 8 8 8 7 6 7 6 7 7 6 6 7 8 8 8 7 7 6 7 8 7 6 4 5 4 4 4 5 5 5 5 5 5 6 6 6 7 10 12 11 11 11 10 11 11 13 14 11 13 14 15 13 13 12 10 10 10
7 8 8 9 8 9 9 8 9 9 9 8 9 9 9 9 9 10 9 8 9 7 7 7 7 8 8 8 8 7 7 7 7 6 6 6 7 7 6 7 7 7 6 6 6 6 7 7 6 5 4 4 4 4 4 5 5 5 5 5 5 5 5 5 7 7 9 11 10 10 10 11 11 12 12 11 12 13 12 13 11 11 11 11 11
8 8 8 9 8 9 8 8 9 9 8 8 9 9 9 9 9 10 9 9 8 8 7 6 7 8 8 7 7 7 6 6 7 6 5 5 6 6 6 6 6 6 6 5 6 5 6 6 5 4 4 4 4 5 5 5 5 5 5 5 5 5 5 5 6 7 8 10 11 10 10 9 10 11 11 14 15 12 12 13 13 13 13 11 9
7 8 8 9 8 9 8 8 8 8 8 9 9 9 10 10 10 9 10 10 8 7 7 6 7 8 7 7 7 6 6 6 6 5 5 5 6 6 5 5 5 6 5 5 4 4 4 4 3 3 4 4 5 5 5 5 5 5 6 6 6 5 6 6 6 7 7 8 10 10 10 11 12 10 12 13 16 17 17 14 12 12 12 12 9
8 8 8 8 8 7 8 8 8 8 8 8 8 9 10 10 10 10 9 9 9 8 7 8 6 7 7 7 7 6 6 6 6 6 5 5 5 6 6 5 5 5 4 5 4 4 3 2 2 2 3 3 4 4 5 5 5 6 6 6 6 6 6 6 7 7 8 9 9 9 11 9 9 12 11 12 10 10 14 18 17 13 9 8 13
8 8 7 7 7 7 7 7 7 8 7 8 8 9 9 10 9 9 8 9 8 8 8 8 6 7 7 7 5 5 6 6 5 5 4 4 4 4 4 5 5 5 5 4 3 3 3 3 2 2 1 2 3 4 4 6 6 6 6 5 6 6 6 7 7 7 8 8 9 11 10 11 10 9 8 9 12 11 8 12 17 17 17 14 9
9 8 8 8 7 6 7 6 7 7 8 8 9 9 10 10 9 9 8 8 7 7 6 7 8 8 7 7 6 6 7 5 4 3 3 4 4 4 4 5 6 5 4 4 3 3 3 3 3 4 6 8 6 5 6 4 3 6 7 5 6 6 6 7 7 7 7 8 10 9 10 11 12 11 14 12 13 13 14 14 14 15 15 15 14
10 9 8 7 6 7 7 7 8 8 8 9 9 10 10 10 9 9 8 8 7 7 7 7 7 7 7 7 7 7 5 3 5 6 4 2 3 4 4 4 5 4 4 4 4 4 4 4 4 11 10 9 9 10 11 10 8 4 5 5 5 6 6 7 8 7 8 10 10 12 13 13 14 13 13 13 12 13 14 14 14 15 16 15 15
9 9 8 7 7 8 8 8 8 9 8 9 10 11 10 9 9 9 8 7 7 6 7 8 7 6 7 7 7 6 5 3 6 3 2 4 4 4 5 4 4 4 3 3 3 4 4 4 4 6 7 8 8 12 13 12 12 13 12 10 8 5 5 7 8 8 9 9 10 11 12 14 14 14 13 13 12 12 12 12 13 11 12 15 18
9 9 8 7 7 9 8 9 9 9 9 10 10 10 10 10 10 9 8 8 6 6 8 7 6 6 6 7 7 5 4 5 3 1 5 7 7 5 4 4 3 3 2 2 1 3 4 5 4 4 5 6 6 7 10 12 13 13 14 13 13 14 11 5 5 8 9 9 10 11 12 12 14 14 14 14 14 13 12 12 11 11 13 13 13
9 9 8 8 8 8 8 9 9 9 9 9 9 9 10 10 10 9 8 6 6 7 6 7 6 6 7 7 6 4 3 6 6 7 7 8 9 7 4 4 4 3 2 1 1 2 4 5 6 6 5 10 7 6 6 8 11 13 13 13 13 14 14 15 12 7 6 7 9 12 12 13 13 13 15 16 14 15 14 12 11 12 11 13 13
10 9 9 8 8 8 8 9 9 9 9 9 9 10 10 10 8 7 7 6 7 6 6 7 6 6 6 7 5 5 5 7 8 11 11 11 11 8 3 3 3 3 2 1 0 1 3 4 5 6 6 5 5 8 7 7 7 7 8 8 8 11 13 13 13 14 11 7 8 10 13 11 12 13 15 14 15 16 15 14 14 13 13 13 16
10 10 9 8 8 8 9 9 9 9 9 9 9 10 10 9 9 7 7 7 7 7 7 6 5 5 5 6 7 6 4 7 10 13 14 14 13 8 3 3 1 1 1 2 1 2 4 4 4 5 6 7 6 8 7 7 6 7 8 8 8 8 8 9 10 9 9 9 8 9 11 11 10 12 13 12 12 12 12 15 14 13 13 13 12
10 9 9 8 8 8 9 9 9 9 9 9 9 9 9 9 9 7 7 6 5 5 5 6 6 6 5 7 8 6 4 8 11 12 13 13 11 6 4 3 1 1 3 3 3 3 4 4 4 6 6 6 10 13 10 6 5 7 8 8 8 8 8 11 14 14 12 11 10 10 10 12 14 12 13 13 12 12 12 11 10 12 14 12 13
9 9 8 8 8 8 9 10 10 9 9 9 9 9 9 9 8 7 8 7 7 6 5 5 5 6 6 6 8 5 5 7 10 11 10 11 9 6 4 4 3 2 3 4 4 4 4 4 4 5 6 7 11 12 12 8 6 7 7 8 7 7 9 10 14 16 17 18 18 18 18 17 16 16 16 18 15 14 12 11 12 13 13 15 12
9 10 9 8 8 9 10 10 10 10 9 10 9 8 7 7 8 8 9 7 7 6 5 5 4 5 6 5 6 7 5 6 10 10 10 10 8 6 4 5 3 3 3 4 4 4 5 10 8 4 6 7 11 12 11 7 6 6 6 7 9 9 10 9 8 11 16 16 17 18 17 17 16 15 16 16 17 15 12 14 15 13 13 13 15
14 12 9 8 8 9 10 10 10 10 10 9 9 9 9 9 7 7 7 7 7 6 5 6 4 4 5 5 8 7 5 5 9 9 9 8 6 4 5 5 5 4 4 5 4 4 6 6 9 9 7 8 12 12 11 7 5 5 5 6 8 9 10 9 9 12 12 12 13 13 13 14 12 10 12 16 16 16 11 12 13 12 13 14 15
11 12 10 7 8 9 9 10 9 10 10 9 8 8 7 8 8 8 7 7 7 6 5 6 6 4 4 5 5 5 6 5 5 8 8 8 7 4 4 6 3 2 3 3 6 6 5 6 7 10 12 12 11 12 12 10 5 5 5 6 7 10 9 8 11 10 10 10 11 12 12 12 12 11 10 11 12 13 12 12 12 12 12 12 12
11 11 12 11 9 9 9 9 10 9 9 9 9 7 7 8 7 8 7 7 6 6 5 5 5 4 4 4 4 4 4 5 5 9 8 8 7 7 4 3 1 0 1 2 3 4 6 6 6 9 12 11 10 11 11 12 9 5 6 6 4 7 8 7 11 13 9 10 10 11 11 12 12 11 11 11 11 11 12 13 12 12 12 13 12
10 11 10 13 11 10 9 8 9 9 8 9 9 8 6 7 8 8 7 7 7 6 5 4 5 4 3 3 4 4 4 7 5 8 8 8 7 7 6 2 1 1 2 3 4 4 5 4 5 8 11 11 10 10 11 11 11 6 9 11 13 14 9 6 7 8 9 9 9 10 11 12 12 13 13 13 12 12 12 12 12 13 12 10 11
10 11 11 12 11 10 9 10 9 7 8 9 9 9 8 8 8 8 8 7 7 6 5 4 5 4 4 4 4 4 3 4 7 5 7 8 7 7 5 3 2 1 2 2 3 4 4 4 5 10 10 10 10 10 10 11 8 7 12 13 13 14 10 7 7 8 8 9 10 10 11 11 12 13 13 13 13 13 11 10 11 12 12 11 11
10 10 10 11 11 10 9 9 8 7 8 8 9 10 9 8 8 8 8 7 7 7 6 6 5 5 5 4 2 2 1 2 4 5 5 7 7 6 5 4 4 1 0 1 2 3 5 5 6 10 9 9 10 10 10 10 7 10 12 13 12 10 7 7 8 8 8 9 10 10 11 11 11 11 12 11 10 11 10 9 10 11 11 10 11
11 11 11 11 11 9 8 8 8 7 7 9 9 9 9 9 8 7 7 7 7 7 6 6 7 6 6 6 5 1 0 1 2 3 5 6 6 5 5 5 4 2 1 2 1 2 5 7 7 9 8 8 9 9 8 10 11 10 11 12 10 7 7 7 7 7 9 9 9 9 10 11 10 10 11 11 10 10 11 12 12 12 12 11 10
11 11 11 10 11 10 9 7 7 7 7 7 8 8 10 9 8 8 7 7 7 7 7 7 6 6 6 6 5 3 1 1 1 1 2 3 3 4 4 4 5 4 2 2 7 8 10 10 9 8 7 6 5 4 5 6 10 11 11 10 6 7 6 7 7 8 8 8 9 9 9 9 10 10 10 10 11 12 12 12 12 13 12 12 12
11 11 11 10 10 10 10 8 7 7 6 6 7 8 8 7 8 8 7 7 7 7 8 7 7 6 6 6 4 3 3 1 1 1 1 1 1 2 3 3 5 6 7 7 8 8 7 7 5 5 4 6 7 4 5 6 7 7 7 7 6 6 6 6 6 6 6 7 8 8 8 8 8 10 11 11 11 11 11 11 11 11 12 11 11
12 11 12 10 9 9 9 11 10 7 7 7 8 7 6 6 8 8 8 7 7 7 7 8 8 7 7 6 5 3 3 1 1 1 1 0 1 1 1 2 4 4 5 5 5 5 4 6 5 5 6 7 6 6 6 6 5 4 6 6 7 6 7 8 7 6 6 6 6 7 8 9 10 10 10 10 10 10 10 10 11 12 12 12 13
11 11 10 9 9 8 8 8 7 7 6 5 3 3 6 6 6 2 2 4 7 8 7 8 8 8 9 8 7 5 4 4 4 5 2 4 1 1 2 3 2 2 3 5 4 3 4 6 6 6 6 4 6 6 6 6 6 6 5 6 6 6 7 6 7 7 7 7 8 8 8 8 9 9 9 11 11 10 10 10 11 11 11 11 12
11 11 10 9 9 8 7 7 7 7 7 7 6 5 8 7 1 6 4 2 6 11 14 9 9 8 8 7 6 7 7 7 6 7 5 5 5 4 4 4 4 3 4 4 1 1 1 2 3 2 3 4 5 5 6 6 6 7 6 6 6 6 7 6 6 7 7 7 7 7 8 8 9 9 9 9 10 10 10 9 9 9 11 12 11
10 10 10 9 10 9 8 7 7 7 7 7 7 7 5 6 10 7 4 9 9 8 9 14 14 11 11 7 4 6 6 7 8 7 6 5 5 4 4 5 5 4 4 1 2 2 1 3 4 2 3 2 3 3 3 4 4 6 6 6 5 6 6 6 6 6 7 7 7 7 7 8 8 8 8 9 9 9 10 9 8 9 9 10 10
11 11 10 9 10 8 7 8 8 8 7 7 8 8 8 7 5 7 8 7 7 12 14 13 12 10 9 9 7 1 2 4 7 6 6 5 3 3 4 5 4 3 2 3 1 1 0 0 1 1 1 3 2 2 2 3 3 3 4 6 6 6 6 6 6 6 6 6 7 7 7 8 7 7 7 8 8 8 9 10 9 9 9 8 8
11 10 9 10 9 9 9 8 8 9 9 8 8 8 9 8 8 5 4 7 7 7 9 10 10 11 10 9 8 8 8 7 7 6 5 2 0 2 6 5 5 1 6 3 1 1 1 1 1 1 0 1 1 1 2 2 3 4 2 3 5 6 5 4 4 5 5 6 6 6 6 7 7 8 7 7 7 8 8 9 9 8 7 8 9
11 10 10 11 10 9 9 9 9 8 8 8 8 8 8 8 8 7 7 4 3 4 5 4 5 6 6 7 5 4 4 6 6 5 2 2 1 3 4 2 2 3 3 1 2 1 1 1 1 1 0 0 0 1 2 3 3 3 3 3 3 4 4 3 4 6 5 6 6 6 6 6 6 6 8 7 7 7 8 8 7 8 8 7 7
9 10 14 12 10 10 9 9 9 8 8 8 8 8 8 7 8 9 8 8 7 7 5 4 3 5 4 3 3 3 3 4 4 3 3 2 0 4 2 4 2 4 5 3 0 3 3 3 2 2 2 0 0 0 1 2 4 5 3 3 3 4 4 4 4 4 5 5 6 6 6 6 6 6 5 6 7 8 8 8 8 7 7 7 7
10 8 9 11 9 8 9 9 8 8 8 8 7 7 7 7 7 7 7 7 8 7 4 5 4 4 3 4 4 4 4 4 4 2 2 2 1 2 2 2 2 2 2 5 3 4 4 3 4 3 3 2 1 0 1 2 3 3 3 3 3 4 4 4 4 4 4 4 4 4 6 6 6 6 6 6 7 6 6 7 7 7 7 6 6
9 9 9 9 9 8 8 8 7 8 8 7 7 7 7 7 6 6 6 7 6 6 6 4 2 1 1 3 6 6 6 4 4 3 3 4 4 1 2 3 3 3 3 6 4 4 5 3 4 3 3 2 2 1 1 2 2 3 4 3 3 3 5 4 3 3 4 5 5 5 4 5 6 5 5 6 7 7 7 7 7 7 7 8 7
10 9 8 8 8 8 8 8 8 9 8 8 7 8 7 7 7 7 7 7 6 6 5 3 4 6 6 7 5 6 3 3 3 5 4 3 2 3 5 4 3 4 6 5 5 5 6 3 3 5 5 5 3 3 3 4 3 3 4 4 4 4 4 4 4 3 2 3 4 5 4 5 5 5 4 5 6 6 7 6 6 8 8 8 7
8 11 12 13 10 9 8 8 8 7 7 7 7 7 7 7 6 6 6 6 5 5 5 5 6 6 7 5 2 2 3 2 4 7 7 6 4 4 4 5 5 6 5 6 6 5 7 5 4 6 5 6 5 5 4 4 4 4 4 3 5 4 4 4 5 4 4 4 4 4 3 5 4 4 3 3 5 5 5 6 6 6 7 7 6
8 7 10 14 9 9 8 8 8 7 7 7 7 7 6 7 7 7 6 6 6 6 6 6 6 7 7 3 4 4 6 7 7 7 6 6 6 5 5 7 7 7 6 6 6 7 7 7 6 6 7 6 6 5 5 5 5 5 4 4 5 5 6 5 5 5 5 4 4 4 4 4 3 4 4 3 4 4 5 6 5 5 5 5 6
7 8 8 9 10 8 8 8 7 8 7 7 7 7 7 8 7 6 6 7 7 7 7 7 8 8 7 9 11 10 8 7 7 7 7 7 7 6 6 7 7 7 6 6 7 7 7 7 7 7 7 7 6 6 6 5 5 5 5 6 5 6 6 6 6 5 6 4 5 5 4 4 3 3 5 5 4 4 4 3 4 6 5 4 5
8 7 8 7 9 9 8 8 8 8 8 8 8 8 7 7 7 7 7 7 7 7 7 8 8 7 7 13 13 14 9 7 6 6 6 6 6 7 7 6 6 7 7 7 7 8 7 7 7 7 7 7 6 7 5 5 6 7 7 6 6 7 6 8 7 5 6 6 5 5 4 4 3 2 3 4 4 5 5 5 4 4 6 6 6
8 7 8 7 7 8 8 8 7 7 7 8 8 7 8 8 7 8 8 8 8 8 8 8 8 7 7 9 12 12 8 7 6 7 6 7 7 7 7 7 7 7 7 7 7 7 7 7 8 7 8 8 8 7 7 8 8 8 7 6 7 7 7 7 7 6 6 6 7 6 5 5 4 4 4 4 3 3 3 4 5 5 4 4 4
7 7 7 7 7 6 6 7 7 7 8 9 9 9 8 8 7 7 8 8 8 8 8 9 8 7 7 4 5 7 7 7 7 7 8 7 7 7 8 8 7 6 7 7 7 6 7 7 8 8 7 7 7 6 7 7 7 7 7 7 7 7 7 7 7 7 6 6 7 6 6 5 5 4 4 5 3 3 4 4 4 5 6 6 4
7 7 7 7 7 7 7 8 8 8 8 7 8 8 8 8 8 8 8 7 7 7 8 8 7 7 5 5 6 7 8 8 8 8 8 8 8 8 8 7 7 7 6 6 7 6 6 7 8 7 8 7 7 7 8 8 7 7 7 7 7 8 8 8 8 7 5 5 7 6 7 6 6 5 6 6 4 3 4 4 3 4 5 5 5
6 5 6 6 6 6 7 7 8 8 8 7 6 5 5 6 6 6 7 7 7 7 7 6 6 6 6 7 6 7 7 7 8 8 8 7 7 8 7 7 7 7 6 7 6 5 6 7 7 8 9 8 8 8 8 8 8 7 7 7 8 9 9 8 6 5 6 6 7 7 7 6 7 7 7 6 6 4 5 4 3 3 3 4 5
8 7 8 7 8 7 6 6 5 7 6 6 6 6 6 6 6 6 5 7 7 7 6 5 5 6 6 6 6 7 7 7 8 8 8 9 8 8 7 7 7 7 7 7 6 7 7 7 7 8 9 9 8 8 8 8 8 8 7 7 7 8 8 7 7 6 7 7 7 6 7 7 8 7 8 6 5 6 5 6 5 5 5 4 5
8 7 6 6 7 7 6 6 7 7 6 6 6 6 6 6 6 7 7 7 6 6 7 5 5 6 6 6 6 7 7 7 7 7 8 8 8 8 7 6 7 8 7 7 6 7 7 7 7 8 8 9 8 8 8 8 8 7 7 7 7 8 11 10 6 7 7 6 6 7 7 7 8 8 7 7 7 7 6 8 6 5 6 6 6
7 7 6 6 6 7 7 7 6 6 7 6 6 5 5 6 7 7 6 7 7 7 7 7 7 6 6 7 7 7 7 6 7 7 7 8 8 8 8 8 7 7 5 7 8 7 7 7 8 7 7 7 8 8 8 8 8 8 8 8 10 14 15 13 8 8 9 7 6 7 6 7 8 8 8 7 8 7 7 7 6 7 6 5 6
6 7 7 7 6 5 5 6 6 6 5 5 6 6 6 6 6 6 6 6 5 5 6 6 7 6 6 7 7 7 7 7 8 8 8 8 8 8 8 7 5 7 7 8 8 8 7 7 7 7 7 7 7 8 7 8 8 9 8 10 13 15 15 15 12 12 10 7 8 7 8 7 8 8 8 8 8 7 8 8 8 7 7 7 7
4 6 6 6 6 6 6 6 6 4 5 5 7 7 7 7 7 7 7 7 7 7 7 7 7 7 6 6 7 7 7 7 7 7 7 7 7 7 7 7 8 8 8 7 7 7 6 5 7 7 7 7 7 7 7 8 8 9 12 15 15 15 16 14 10 11 13 10 7 7 7 9 8 9 9 8 8 8 10 10 9 8 8 8 8
Wind_Direction
117 119 115 114 118 116 109 101 103 107 106 106 107 102 92 91 91 96 86 83 86 82 82 80 76 73 68 62 60 57 55 54 51 65 71 73 71 72 69 67 68 63 59 51 45 46 42 43 37 32 25 32 28 29 23 12 10 2 355 355 345 339 335 335 322 315 308 311 308 314 314 316 318 321 320 321 319 321 318 314 314 313 313 313 312
125 119 114 118 117 113 108 111 113 110 107 104 100 93 95 96 98 88 87 86 87 87 84 80 77 73 72 67 63 61 60 59 55 63 77 77 74 73 72 69 68 63 56 56 48 43 43 45 40 33 30 33 25 23 7 348 360 355 351 341 336 333 332 328 326 322 322 321 320 320 319 328 317 325 325 325 321 320 319 320 316 311 308 309 312
122 118 118 118 117 115 116 118 117 111 105 100 96 99 100 100 95 93 92 89 84 86 86 82 79 79 74 68 66 61 60 62 57 68 77 83 81 75 70 70 67 63 61 58 54 45 46 47 41 34 23 28 18 0 349 342 338 342 336 327 327 326 328 327 321 328 330 325 324 326 329 327 322 323 322 318 313 315 315 316 315 312 307 306 303
121 119 120 119 119 116 117 119 113 110 104 102 104 105 104 99 98 95 96 94 90 83 80 80 80 78 77 70 66 65 62 62 65 65 73 82 82 76 69 66 64 63 67 67 58 52 49 46 42 32 19 23 4 354 343 339 334 326 322 311 309 313 317 319 330 318 321 323 329 323 323 322 323 321 321 316 315 315 312 306 302 299 304 305 303
121 122 121 119 116 115 116 114 113 110 108 108 110 108 104 103 100 101 98 93 92 92 82 76 80 75 75 74 71 65 63 65 68 63 64 75 80 78 72 69 67 67 66 66 64 61 51 50 39 32 22 19 1 1 346 350 336 325 323 320 323 323 326 327 331 330 325 324 325 324 321 317 317 318 321 327 327 320 315 312 313 309 306 299 296
123 122 119 116 117 115 116 114 114 115 116 116 115 112 109 106 102 98 99 99 95 91 92 83 83 83 79 78 76 73 67 67 67 65 64 72 74 70 71 71 70 69 66 62 60 51 59 50 38 38 27 25 4 352 349 346 338 338 332 327 321 319 321 323 326 332 328 324 322 320 335 330 325 325 328 326 326 326 328 319 310 309 306 302 286
125 120 118 117 117 118 119 119 121 122 121 121 116 111 109 107 105 104 103 103 103 99 93 91 81 84 82 78 73 74 72 66 62 57 57 62 79 76 72 71 71 70 67 61 50 44 41 34 31 27 39 26 10 354 344 343 341 332 327 318 310 309 313 323 328 333 331 327 325 326 327 327 328 326 328 319 309 315 321 325 318 313 299 297 306
123 120 119 117 117 120 116 114 115 116 116 114 110 108 106 105 104 104 102 101 99 99 98 96 91 83 79 78 76 76 73 63 54 50 51 54 80 84 79 79 76 68 63 50 38 31 17 358 336 341 6 29 14 350 350 340 331 320 311 307 304 307 310 314 323 329 331 333 332 333 333 325 326 314 297 311 324 324 330 324 317 317 315 310 299
126 125 123 122 124 119 112 109 110 112 111 109 107 106 106 105 103 103 101 101 99 99 99 97 94 86 77 76 73 66 65 55 50 41 35 46 63 89 80 80 79 77 65 47 28 16 360 350 327 350 357 350 352 351 331 313 302 307 308 307 304 308 305 310 317 323 324 327 329 330 331 333 334 326 336 339 340 331 328 322 311 310 306 305 303
131 131 127 128 126 119 115 115 116 115 112 110 112 111 109 108 105 101 100 99 100 99 94 89 86 88 85 74 68 63 57 48 27 19 16 57 79 99 90 80 84 86 80 54 22 3 350 346 338 359 354 340 337 342 340 332 321 291 281 296 299 305 307 312 317 322 326 331 333 334 338 341 337 333 328 329 326 325 322 323 315 312 310 302 295
131 130 129 129 127 123 120 122 120 115 114 112 114 115 115 111 106 103 102 101 99 98 92 87 84 81 81 78 69 63 52 33 10 359 60 103 117 116 112 99 87 89 83 74 38 11 356 347 347 350 352 337 339 344 340 340 338 338 334 330 322 308 304 316 314 321 330 328 324 331 334 334 335 331 328 325 328 328 321 318 314 312 315 320 319
133 131 129 129 130 129 127 124 119 119 117 117 117 117 116 111 110 109 107 101 97 94 88 89 90 86 82 76 69 60 51 19 3 118 98 103 124 125 124 118 112 105 106 95 33 10 4 359 353 350 340 340 350 345 336 336 342 342 343 343 343 342 341 329 312 323 330 328 327 328 328 333 330 331 329 328 330 327 328 321 315 314 314 314 311
134 132 131 132 134 131 128 125 124 121 120 120 119 119 117 115 116 113 109 108 99 92 95 91 87 86 84 82 73 60 57 22 39 60 74 106 128 130 130 129 122 128 136 151 58 12 5 3 355 349 342 346 351 344 338 337 343 344 346 349 346 347 343 339 336 325 304 315 324 322 327 326 328 329 329 327 322 324 328 322 317 314 309 305 306
136 136 135 137 137 134 130 128 125 125 124 122 121 121 120 119 117 113 110 102 98 96 90 90 90 84 85 86 81 61 53 22 58 72 81 93 110 111 126 130 134 162 188 208 256 319 336 354 353 345 339 342 351 350 343 348 343 346 350 350 347 341 341 340 341 340 339 333 326 321 315 320 316 316 323 323 324 331 329 324 320 313 312 308 301
139 139 140 141 139 136 133 129 128 129 126 124 120 119 120 119 117 118 115 114 110 108 106 98 92 92 90 89 79 62 40 33 67 72 78 85 89 97 91 82 81 214 243 245 250 281 321 328 338 340 337 338 360 356 352 344 345 354 352 351 344 340 337 341 344 340 337 335 330 317 310 310 304 309 313 321 322 321 322 319 313 308 305 300 291
141 138 139 144 143 141 136 134 133 131 128 125 121 121 122 125 124 122 112 107 103 100 92 98 102 99 94 90 84 69 43 45 68 73 80 85 86 83 83 77 53 329 302 288 291 295 312 326 344 347 339 338 356 354 357 350 4 2 355 347 345 341 342 339 338 338 337 335 333 329 319 310 307 307 313 322 326 322 324 320 318 329 324 321 320
141 139 137 145 146 143 139 138 137 135 132 128 127 126 124 121 119 121 118 122 120 115 118 112 112 106 97 91 93 83 60 46 64 71 79 94 92 84 84 73 43 6 323 309 314 319 328 337 350 350 348 347 348 357 356 5 10 4 355 350 344 346 345 340 336 338 339 336 334 333 329 324 319 316 317 324 331 334 336 336 341 337 333 334 330
135 138 153 156 150 146 145 143 142 140 136 136 134 129 122 120 125 129 129 132 126 131 127 113 106 109 107 102 103 95 77 55 65 65 68 73 87 93 90 87 56 23 343 324 313 319 333 347 357 7 356 345 345 3 2 9 15 359 359 354 357 354 344 340 337 340 338 337 337 335 332 332 329 325 324 330 337 351 350 351 342 338 338 336 335
152 148 154 149 148 146 146 143 142 140 137 139 138 136 135 134 133 125 127 126 132 135 131 122 118 107 110 110 95 91 80 58 59 63 65 70 84 87 90 81 57 13 353 339 332 341 338 337 346 359 360 348 353 3 10 14 16 6 354 4 0 356 341 332 343 342 342 342 341 341 340 340 337 335 334 337 343 357 358 351 344 345 341 340 335
147 139 137 144 145 144 143 142 142 142 141 139 138 137 133 128 132 130 130 130 134 136 133 133 129 130 117 98 94 93 84 59 55 68 71 69 82 91 79 76 54 3 339 347 346 339 344 343 345 348 352 352 357 4 14 19 18 8 10 15 2 351 329 338 345 344 338 341 336 340 337 339 341 339 340 346 348 356 0 359 351 344 342 338 337
145 145 143 139 143 146 144 145 144 145 145 143 140 135 136 136 136 132 135 132 130 133 135 138 130 131 122 115 109 96 94 84 61 69 66 63 64 81 78 97 149 242 348 356 344 335 339 339 326 338 345 348 359 8 14 15 17 17 17 8 345 326 340 353 341 344 342 342 342 341 344 345 346 344 346 350 352 352 359 3 354 351 347 345 338
142 143 150 142 146 146 146 145 144 145 145 138 137 139 140 138 139 140 138 141 143 144 142 132 124 113 99 106 107 98 90 95 84 64 70 67 63 63 72 38 221 189 23 359 347 348 336 319 316 326 338 347 4 13 14 16 16 23 2 359 358 0 357 346 343 345 345 346 345 346 348 350 348 348 351 352 351 352 360 356 357 358 353 353 348
143 145 146 142 143 147 147 147 146 147 148 147 144 146 150 147 148 146 147 148 146 146 144 137 121 115 100 85 83 83 78 86 96 89 74 76 68 65 76 78 15 137 101 12 330 313 311 318 315 329 332 342 9 14 20 18 20 7 4 4 2 359 359 358 354 353 349 349 350 352 350 351 350 350 351 348 344 350 351 349 354 356 357 355 354
144 144 144 142 142 147 149 148 146 147 149 144 143 148 155 156 154 157 157 153 153 149 151 141 132 132 136 126 100 86 55 84 83 87 80 66 59 59 58 50 45 359 149 1 326 309 327 330 317 314 326 348 11 15 16 25 14 8 6 3 2 3 3 360 0 355 351 353 355 352 352 349 347 345 343 338 335 341 341 347 353 355 353 349 348
147 145 145 144 145 148 145 146 147 148 148 145 146 153 156 157 158 169 159 159 157 156 161 157 155 156 147 152 168 182 34 29 69 60 65 61 47 33 21 21 17 16 25 343 349 324 301 312 337 343 339 355 16 16 13 10 9 8 8 5 7 7 4 1 358 355 1 357 350 347 347 346 340 335 330 333 336 347 353 355 356 0 357 354 355
146 147 146 145 148 149 146 149 148 146 146 150 151 156 158 161 163 168 165 168 167 159 164 166 162 161 161 170 178 190 234 262 68 23 34 36 18 12 358 355 4 358 324 336 340 351 0 351 345 347 355 8 21 19 11 0 359 7 6 10 7 5 2 1 359 4 359 349 349 347 339 334 337 330 334 343 353 357 353 354 353 357 356 357 2
145 146 148 148 150 151 152 154 152 148 147 149 151 158 158 164 163 168 173 173 172 164 163 166 165 162 167 168 173 178 222 185 76 4 343 359 4 354 345 349 355 8 17 358 359 351 337 342 322 307 324 20 39 28 19 2 7 4 3 1 2 359 359 2 356 357 355 349 343 337 334 336 331 347 353 351 353 352 356 351 356 356 357 358 10
150 153 152 152 154 157 155 156 153 152 158 154 151 152 159 160 168 173 181 174 162 164 159 166 163 163 160 160 161 185 197 208 226 204 209 264 320 340 337 15 22 15 345 342 337 329 323 322 353 17 14 16 8 10 5 6 8 4 3 358 353 351 355 353 3 10 357 341 333 336 343 348 354 349 346 352 353 352 354 355 0 357 1 359 16
149 149 151 150 155 156 155 158 156 146 133 109 90 118 154 165 160 182 260 191 167 157 169 164 167 164 156 160 159 173 203 206 224 194 190 184 194 315 351 335 330 311 299 307 326 342 2 14 11 4 16 9 8 3 358 3 1 360 3 2 355 353 359 6 7 355 346 350 353 345 346 347 349 350 351 355 355 351 356 357 359 0 359 13 22
149 153 155 156 155 152 151 147 141 137 134 131 117 71 31 45 341 175 167 210 210 171 151 162 171 157 157 179 167 159 185 208 199 174 197 216 227 233 249 261 258 256 271 304 150 33 16 3 340 354 359 17 16 3 354 357 4 0 355 356 359 360 357 355 360 350 347 353 344 350 349 348 354 353 352 355 346 353 357 5 356 354 7 12 14
155 156 158 161 161 155 147 142 142 135 137 133 125 116 90 42 34 30 123 149 150 146 129 135 149 160 153 172 230 235 182 159 163 183 205 219 228 236 259 263 269 252 226 113 41 54 32 4 321 343 353 21 27 347 338 356 358 2 351 345 354 357 349 354 349 346 354 351 348 349 349 355 352 350 353 351 349 348 353 357 2 3 11 9 13
162 164 162 156 150 148 146 144 142 139 140 138 136 133 131 111 57 33 43 82 116 127 131 138 149 154 156 147 140 92 141 166 178 200 212 222 232 251 264 280 287 299 272 166 88 8 134 261 309 321 351 29 338 326 342 352 339 2 349 1 351 346 354 348 335 344 347 354 351 349 351 350 348 350 351 350 351 355 355 358 3 4 1 4 12
160 160 157 151 150 149 147 149 150 147 148 146 145 143 138 138 126 100 39 43 69 95 123 140 149 153 152 157 152 155 176 190 202 210 218 218 217 296 303 302 322 10 115 86 126 304 286 199 234 274 93 34 325 328 323 322 321 334 354 345 341 332 325 315 317 348 350 347 346 352 349 347 348 347 353 355 359 356 357 359 354 359 3 3 2
162 162 160 157 154 155 155 155 154 155 153 150 150 147 148 144 142 141 124 102 68 47 51 89 131 142 155 164 166 156 169 177 192 209 208 152 151 315 311 319 70 104 121 149 141 219 253 239 246 258 241 236 268 321 345 333 321 316 330 313 297 303 312 315 355 353 349 349 353 346 350 349 354 355 349 353 354 359 3 356 357 1 1 3 356
160 157 151 153 157 159 158 157 154 152 153 155 155 153 153 154 150 150 154 156 164 167 186 206 219 164 167 185 209 189 189 197 209 208 156 147 77 307 20 31 20 342 7 38 47 243 238 214 204 242 228 141 282 184 300 296 318 333 323 309 307 318 324 344 349 342 348 345 354 353 345 346 347 349 348 352 360 2 356 355 354 0 360 355 355
158 150 155 156 153 155 157 157 157 156 160 163 161 156 150 152 156 165 164 161 161 173 196 208 209 235 212 234 232 227 229 227 229 211 190 182 253 347 3 332 351 349 351 304 300 266 256 225 183 228 232 231 224 219 243 263 285 298 293 300 307 311 321 333 339 346 337 340 345 338 343 349 351 348 344 356 8 356 353 354 349 352 357 359 347
159 156 159 160 158 155 155 154 157 160 158 154 152 148 154 158 158 152 158 161 170 180 183 181 165 265 276 268 241 242 236 242 253 251 223 217 204 157 192 205 231 280 299 284 288 285 263 233 204 204 210 217 216 224 230 247 259 273 293 292 273 294 303 297 301 333 347 343 338 343 345 338 340 346 356 355 352 355 356 353 351 355 359 356 358
162 159 160 158 152 151 152 159 162 158 154 157 158 156 157 161 163 164 162 171 173 170 181 198 185 189 206 235 202 201 234 245 264 291 276 227 190 210 211 212 209 221 254 263 254 248 256 253 207 196 218 207 211 222 225 257 249 253 263 287 291 272 278 294 301 315 321 326 332 331 335 335 341 338 351 360 353 354 351 352 355 352 354 2 6
155 151 154 154 156 159 162 156 157 158 160 159 162 158 161 163 166 168 172 172 171 186 197 186 190 205 223 224 214 152 142 234 230 239 245 249 240 229 216 214 211 230 238 245 259 250 240 233 222 219 210 210 215 218 217 243 251 254 254 264 289 299 304 298 301 296 305 310 310 313 323 324 328 336 328 348 348 350 346 346 355 356 353 351 349
146 149 158 157 157 162 158 161 161 162 163 166 169 165 160 170 177 181 176 167 187 197 196 196 210 221 220 169 196 168 185 220 225 229 233 248 249 241 216 224 224 223 231 239 238 235 229 225 213 202 213 219 217 224 222 228 239 245 248 244 257 277 274 262 259 269 274 273 288 300 315 315 315 321 327 351 336 328 343 346 338 337 341 342 339
148 149 160 166 165 163 161 154 163 169 168 175 171 170 181 185 187 180 178 186 193 196 203 209 216 225 195 209 200 186 196 211 224 224 225 227 233 232 225 226 221 229 229 233 241 234 222 217 211 214 221 218 219 220 229 228 237 240 242 247 246 251 261 264 251 250 255 262 265 281 288 293 307 341 336 316 318 329 324 333 341 343 339 341 344
144 143 160 169 167 167 166 171 172 169 172 179 180 187 187 192 191 186 190 196 196 197 203 216 227 228 214 209 205 196 199 222 217 230 247 242 239 241 233 229 224 221 222 222 225 225 225 220 218 216 220 227 222 229 230 240 238 236 241 244 247 252 256 257 250 241 241 244 251 248 257 267 279 278 273 293 320 329 335 344 338 335 338 340 345
147 155 160 164 173 178 176 178 168 168 178 185 195 195 193 189 194 194 197 200 200 198 202 212 229 228 229 216 210 200 212 220 214 226 241 242 238 239 238 233 228 221 219 226 224 220 214 211 219 220 220 223 215 212 212 224 228 234 237 242 250 252 255 260 262 254 243 240 244 244 241 250 258 270 286 292 300 316 321 330 335 340 336 333 339
148 145 150 162 171 171 174 167 171 172 175 185 186 187 192 193 190 189 192 196 193 195 199 209 212 211 226 206 178 184 212 220 222 228 235 240 240 237 235 235 236 238 237 235 236 220 215 223 229 233 232 233 229 221 222 227 223 225 230 236 247 253 254 259 258 259 246 244 249 250 249 245 245 248 263 273 280 315 311 326 331 331 333 330 333
152 150 154 160 167 165 171 176 175 174 172 160 162 176 184 187 188 188 185 187 192 193 200 201 194 191 192 177 175 188 205 213 222 230 237 238 238 242 242 243 238 238 241 243 238 224 222 228 230 232 238 239 235 232 233 237 229 223 220 217 228 244 248 244 244 241 229 230 250 252 252 243 250 245 250 256 251 245 272 280 286 316 327 325 332
143 145 154 162 167 172 167 177 180 176 176 175 176 180 189 193 203 201 196 194 189 192 206 202 191 190 188 188 191 197 210 214 223 226 235 243 243 248 246 243 246 246 245 248 249 233 229 224 225 226 231 236 235 234 237 240 239 234 229 219 224 232 238 238 237 231 225 224 236 238 245 246 246 243 240 244 245 235 242 262 262 256 256 276 289
168 170 162 167 177 180 177 165 163 184 192 186 182 186 191 199 203 208 207 202 196 199 204 207 192 198 199 195 195 210 216 217 226 229 232 236 240 245 251 248 247 252 258 256 253 244 237 233 230 228 231 235 237 239 242 243 244 244 240 235 235 241 247 242 231 226 232 228 224 227 233 235 246 249 248 243 248 247 243 250 249 261 266 262 268
179 169 162 166 167 169 174 165 181 189 193 191 191 187 194 199 201 201 200 202 200 204 208 217 214 216 203 211 209 216 218 222 229 234 238 240 242 244 249 250 247 246 252 266 266 256 242 237 235 233 236 238 239 243 245 249 250 250 251 248 243 241 244 243 235 234 230 226 220 226 226 232 241 243 245 237 241 244 249 257 254 250 251 260 258
166 166 158 163 169 174 174 177 180 184 195 191 193 196 200 202 206 204 203 198 198 201 199 206 218 218 215 222 216 218 222 223 231 238 239 243 243 247 244 245 246 252 254 258 262 257 248 240 238 239 240 244 242 244 250 254 256 255 252 254 253 252 253 250 241 244 232 222 228 227 232 232 237 242 240 239 243 241 242 252 250 253 256 255 257
173 173 169 172 174 177 165 166 174 187 191 184 186 202 209 212 218 220 222 226 229 227 224 216 220 220 218 223 224 225 222 224 230 234 237 240 241 242 246 249 249 242 233 234 238 241 241 238 237 237 240 239 242 240 243 247 253 253 251 251 256 260 264 261 254 249 244 233 228 225 223 231 235 240 240 238 241 241 244 247 248 245 248 253 255
182 180 183 180 182 174 169 161 168 173 174 183 192 202 209 215 220 223 224 225 228 236 234 226 224 226 225 225 220 219 220 225 229 234 238 243 246 250 249 239 236 238 239 237 245 251 253 245 236 234 237 242 241 242 239 242 245 250 250 253 258 265 271 275 274 267 250 239 240 236 228 231 236 242 244 243 237 238 241 245 247 244 244 242 247